Terug naar catalogus

CZ-4 DEB

ActiefSSO
NORAD 29040·DEBRIS·🇨🇳 China

Gelanceerd Oct 14, 1999 vanaf Taiyuan Satellite Launch Center

Loading…

Volgende Passages (komende 24 uur)

TLE

VersSource: Space-Track

Epoch: Sep 14, 2026, 10:10 UTC

1 29040U 99057NK  26257.42376336  .00000408  00000-0  11839-3 0  9998
2 29040  98.5755 311.1387 0072794 299.0559  60.3355 14.48375046232728

Volg CZ-4 DEB in realtime met AllMySat

Download on the App Store